[[{"header":{"parameterUnit":"m.s-1","parameterCategory":1,"la1":30.2991,"la2":30.254,"lo1":-89.0895,"lo2":-89.0444,"dy":0.0017,"dx":0.0017,"nx":28,"ny":28,"refTime":"2025-03-20T03:00:00:Z","depth":0,"parameterNumber":2,"parameterNumberName":"U-component_of_WINDS"},"data":[0,0,0,0,0,0,0,0,0,0,0,0,0,0,0,0,0,0,0,0,0,0,0,0,0,0,0,0,0,0,0,0,0,0,0,0,0,0,0,0,0,0,0,0,0,0,0,0,0,0,0,0,0,0,0,0,0,0,0.8938,0.8938,0,0.8932,0.8932,0.8932,0.8927,0.8927,0.8927,0.8927,0.8919,0.8919,0.8919,0,0,0,0,0,0,0,0,0,0,0,0,0,0.8945,0.8945,0.8938,0.8938,0.8937,0.8932,0.8932,0.8932,0.8927,0.8927,0.8927,0.8926,0.8919,0.8919,0.8919,0,0,0,0,0,0,0,0,0,0,0,0,0,0.894,0.8945,0.8938,0.8934,0.8934,0.8932,0.8932,0.8932,0.8927,0.8927,0.8927,0.8926,0.892,0.8919,0.8919,0.8919,0,0,0.8918,0.8918,0,0,0,0,0,0,0,0,0.8941,0.894,0.8935,0.8935,0.8934,0.893,0.8932,0.8927,0.8927,0.8929,0.8927,0.8926,0.8923,0.8922,0.8921,0.8919,0.8919,0.8918,0.8918,0.8918,0.8918,0,0,0,0,0,0,0,0.8941,0.894,0.8935,0.8935,0.8934,0.8933,0.8933,0.8931,0.8927,0.8929,0.8929,0.8928,0.8923,0.8922,0.8921,0.8919,0.8918,0.8918,0.8918,0.8918,0.8918,0.8918,0,0,0,0,0,0,0.8942,0.8941,0.8935,0.8935,0.8937,0.8933,0.8932,0.8931,0.8927,0.8926,0.8928,0.8928,0.8922,0.8921,0.8921,0.8922,0.8918,0.8918,0.8918,0.8918,0.8918,0.8918,0,0,0,0,0,0,0.8942,0.8941,0.8936,0.8938,0.8937,0.8933,0.8932,0.8931,0.893,0.8926,0.8925,0.8928,0.8922,0.8921,0.892,0.8921,0.8918,0.8918,0.8917,0.8918,0.8918,0.8922,0,0,0,0,0,0,0.8942,0.8942,0.8941,0.8938,0.8937,0.8935,0.8932,0.8931,0.893,0.893,0.8925,0.8925,0.8922,0.8921,0.892,0.8921,0.8918,0.8917,0.8918,0.8918,0.8922,0.8923,0.8923,0,0,0,0,0,0.8943,0.8942,0.8941,0.8941,0.8937,0.8935,0.8934,0.8931,0.893,0.893,0.8928,0.8925,0.8922,0.892,0.892,0.8921,0.8917,0.8917,0.8918,0.8922,0.8923,0.8923,0,0,0,0,0,0,0.8945,0.8942,0.8941,0.8939,0.8938,0.8934,0.8934,0.8932,0.893,0.893,0.8926,0.8925,0.8925,0.8923,0.8922,0.8921,0.8919,0.8919,0.8922,0.8923,0.8924,0.8924,0.8917,0,0,0,0,0,0.8946,0.8945,0.8942,0.8941,0.894,0.8937,0.8936,0.8935,0.8932,0.8931,0.8929,0.8927,0.8925,0.8924,0.8923,0.8922,0.8922,0.8923,0.8923,0.8924,0.8924,0.8924,0.8925,0.8919,0.8919,0.8919,0,0,0.8946,0.8945,0.8944,0.8941,0.894,0.8939,0.8937,0.8935,0.8935,0.8931,0.893,0.8928,0.8926,0.8926,0.8925,0.8924,0.8926,0.8924,0.8925,0.8924,0.8925,0.8925,0.8926,0.8919,0.8919,0.8919,0,0,0.8947,0.8946,0.8945,0.8944,0.8942,0.8941,0.8941,0.8938,0.8937,0.8936,0.8934,0.8933,0.8931,0.8929,0.8928,0.8931,0.8929,0.8931,0.8933,0.8934,0.8935,0.8935,0.8936,0.8937,0.8931,0.8931,0.8931,0,0.8948,0.8947,0.8945,0.8945,0.8944,0.8942,0.8942,0.8941,0.8938,0.8938,0.8937,0.8934,0.8932,0.8932,0.8933,0.8932,0.8933,0.8931,0.8935,0.8935,0.8936,0.8937,0.8937,0.8931,0.8931,0.8931,0.8931,0,0.8949,0.8948,0.8948,0.8947,0.8946,0.8946,0.8944,0.8944,0.8943,0.8941,0.8941,0.8939,0.8938,0.8938,0.8936,0.8938,0.8937,0.8936,0.8933,0.8937,0.8938,0.8938,0.8932,0.8932,0.8932,0.8932,0,0,0.8949,0.8948,0.8948,0.8948,0.8947,0.8946,0.8947,0.8946,0.8946,0.8945,0.8945,0.8944,0.8943,0.8942,0.8941,0.8941,0.8945,0.894,0.894,0.8941,0.8947,0.8948,0.8948,0.8944,0.8944,0.8944,0.8947,0,0.895,0.895,0.8949,0.8949,0.8949,0.8948,0.8948,0.8948,0.8947,0.8947,0.8947,0.8946,0.8945,0.8944,0.8945,0.8944,0.8946,0.8944,0.8944,0.8944,0.8944,0.8949,0.8949,0.8952,0.8948,0.8948,0.8948,0,0.895,0.895,0.895,0.895,0.895,0.895,0.895,0.895,0.895,0.895,0.895,0.8949,0.895,0.8948,0.8949,0.8948,0.8948,0.8948,0.8948,0.8947,0.8945,0.8948,0.8953,0.8954,0.8948,0.8948,0.8948,0,0.895,0.895,0.8951,0.8951,0.8951,0.8951,0.8951,0.8951,0.8951,0.8952,0.8952,0.8952,0.8952,0.8953,0.8952,0.8951,0.8953,0.8952,0.8953,0.8953,0.8953,0.8952,0.8958,0.8954,0.8954,0.8954,0.8954,0,0.895,0.895,0.8951,0.8951,0.8952,0.8952,0.8953,0.8953,0.8953,0.8954,0.8953,0.8954,0.8953,0.8954,0.8954,0.8955,0.8955,0.8955,0.8955,0.8954,0.8954,0.8954,0.8953,0.8954,0.8954,0.8954,0.8954,0,0.895,0.895,0.8951,0.8952,0.8952,0.8953,0.8953,0.8954,0.8954,0.8955,0.8955,0.8956,0.8957,0.8957,0.8957,0.8957,0.8959,0.8959,0.8959,0.8959,0.896,0.896,0.8965,0.8965,0.8962,0.8962,0.8962,0,0.895,0.895,0.8951,0.8952,0.8952,0.8953,0.8954,0.8954,0.8955,0.8956,0.8957,0.8958,0.8959,0.8961,0.8961,0.8962,0.8962,0.8963,0.8962,0.8962,0.8961,0.8961,0.8961,0.8963,0.8963,0.8963,0.8963,0,0.8949,0.895,0.8951,0.8952,0.8953,0.8954,0.8955,0.8956,0.8956,0.8957,0.8959,0.896,0.8962,0.8963,0.8964,0.8965,0.8964,0.8964,0.8965,0.8964,0.8964,0.8964,0.8959,0.8964,0.8964,0.8964,0.8964,0.8964,0.8948,0.8949,0.8951,0.8952,0.8953,0.8955,0.8956,0.8957,0.8958,0.896,0.896,0.8962,0.8964,0.8966,0.8966,0.8968,0.8967,0.8968,0.8968,0.8968,0.8968,0.8965,0.8968,0.8968,0.8968,0.8968,0.8968,0,0.8948,0.8949,0.8951,0.8953,0.8954,0.8955,0.8956,0.8957,0.8959,0.8961,0.8962,0.8965,0.8966,0.8968,0.897,0.8971,0.8971,0.8972,0.8971,0.8971,0.8968,0.8968,0.8972,0.8972,0.8972,0.8972,0.8972,0.8972,0.8947,0.8949,0.895,0.8953,0.8954,0.8956,0.8957,0.8959,0.896,0.8963,0.8965,0.8966,0.8968,0.8971,0.8973,0.8973,0.8974,0.8974,0.8975,0.8972,0.8971,0.8971,0.897,0.8975,0.8975,0.8977,0.8977,0.8977]},{"header":{"parameterUnit":"m.s-1","parameterCategory":1,"la1":30.2991,"la2":30.254,"lo1":-89.0895,"lo2":-89.0444,"dy":0.0017,"dx":0.0017,"nx":28,"ny":28,"refTime":"2025-03-20T03:00:00:Z","depth":0,"parameterNumber":3,"parameterNumberName":"V-component_of_WINDS"},"data":[0,0,0,0,0,0,0,0,0,0,0,0,0,0,0,0,0,0,0,0,0,0,0,0,0,0,0,0,0,0,0,0,0,0,0,0,0,0,0,0,0,0,0,0,0,0,0,0,0,0,0,0,0,0,0,0,0,0,-4.9798,-4.9801,0,-5.0002,-5.0005,-5.0007,-4.9947,-4.9943,-4.9938,-4.9934,-5.0141,-5.015,-5.016,0,0,0,0,0,0,0,0,0,0,0,0,0,-4.9354,-4.9362,-4.9798,-4.9801,-4.9803,-5.0002,-5.0005,-5.0008,-4.9948,-4.9942,-4.9937,-4.9932,-5.0138,-5.0149,-5.016,0,0,0,0,0,0,0,0,0,0,0,0,0,-4.9551,-4.9365,-4.9798,-4.9797,-4.9799,-5.0001,-5.0005,-5.0008,-4.9949,-4.9942,-4.9936,-4.993,-5.0134,-5.0148,-5.0162,-5.0376,0,0,-5.0205,-5.0211,0,0,0,0,0,0,0,0,-4.954,-4.9568,-4.9795,-4.9798,-4.98,-4.9943,-4.9924,-5.0132,-4.995,-4.9892,-4.9934,-4.9927,-5.008,-5.0098,-5.015,-5.0386,-5.0395,-5.0207,-5.0215,-5.0221,-5.0225,0,0,0,0,0,0,0,-4.9527,-4.9558,-4.9879,-4.9798,-4.9802,-4.9786,-4.9807,-4.9963,-5.0019,-4.9896,-4.9893,-4.9918,-5.008,-5.0137,-5.0155,-5.0398,-5.0206,-5.0219,-5.0227,-5.0233,-5.0818,-5.0825,0,0,0,0,0,0,-4.9511,-4.9547,-4.9872,-4.9885,-4.9652,-4.9799,-4.9823,-4.9903,-5.0017,-5.0028,-4.9923,-4.9914,-5.0116,-5.0138,-5.0162,-5.042,-5.0221,-5.0234,-5.0243,-5.0811,-5.082,-5.0827,0,0,0,0,0,0,-4.9502,-4.9541,-4.9864,-4.9715,-4.9755,-4.9814,-4.9905,-4.9911,-4.9967,-5.0037,-5.0046,-4.9971,-5.0112,-5.0142,-5.0323,-5.0426,-5.0241,-5.0254,-5.0803,-5.0814,-5.0823,-5.0937,0,0,0,0,0,0,-4.9489,-4.9538,-4.9621,-4.9718,-4.9764,-5.0024,-4.9911,-4.9919,-4.9992,-4.9983,-5.0084,-5.0095,-5.0109,-5.0303,-5.0337,-5.0442,-5.0265,-5.0794,-5.0808,-5.082,-5.0925,-5.0951,-5.0973,0,0,0,0,0,-4.9474,-4.9644,-4.9625,-4.9665,-4.9868,-5.003,-5.0056,-5.0069,-5.0001,-5.0084,-5.0128,-5.0092,-5.0409,-5.0322,-5.036,-5.0471,-5.0787,-5.0804,-5.0819,-5.0914,-5.0946,-5.0972,0,0,0,0,0,0,-4.9558,-4.9657,-4.9637,-4.9844,-4.9929,-5.0019,-5.0125,-5.0102,-5.0207,-5.0194,-5.0205,-5.0229,-5.0414,-5.0461,-5.0361,-5.0684,-5.0588,-5.0612,-5.0647,-5.0677,-5.0701,-5.0686,-5.0276,0,0,0,0,0,-4.96,-4.9724,-4.9804,-4.9979,-5.0022,-5.0066,-5.0137,-5.014,-5.0228,-5.0263,-5.0321,-5.0407,-5.0526,-5.0604,-5.0717,-5.0931,-5.0952,-5.1026,-5.105,-5.1069,-5.109,-5.1206,-5.1239,-5.0879,-5.0879,-5.0879,0,0,-4.969,-4.9759,-4.9836,-4.9997,-5.0063,-5.019,-5.0097,-5.0235,-5.0329,-5.0284,-5.0459,-5.0504,-5.0601,-5.0799,-5.0889,-5.0843,-5.1194,-5.1089,-5.1104,-5.1115,-5.1225,-5.1259,-5.129,-5.089,-5.0888,-5.0886,0,0,-4.9917,-4.9983,-5.0135,-5.0203,-5.0304,-5.0332,-5.0369,-5.0463,-5.0492,-5.0668,-5.0636,-5.0747,-5.0952,-5.1022,-5.1084,-5.1337,-5.1307,-5.1374,-5.1499,-5.1611,-5.164,-5.1665,-5.1755,-5.1787,-5.1394,-5.1395,-5.1395,0,-5.0015,-5.0206,-5.0216,-5.0358,-5.0429,-5.0394,-5.0548,-5.0613,-5.0746,-5.0796,-5.0743,-5.0998,-5.1061,-5.1275,-5.1336,-5.1388,-5.143,-5.1362,-5.1635,-5.166,-5.1684,-5.177,-5.1804,-5.1402,-5.1401,-5.14,-5.14,0,-5.0321,-5.0454,-5.0565,-5.0694,-5.0778,-5.0925,-5.0957,-5.104,-5.1035,-5.1069,-5.1247,-5.1321,-5.1448,-5.1499,-5.1496,-5.1713,-5.1681,-5.1632,-5.1536,-5.1726,-5.1806,-5.1839,-5.1413,-5.141,-5.1408,-5.1406,0,0,-5.0608,-5.0741,-5.0782,-5.084,-5.0949,-5.1051,-5.1195,-5.1321,-5.1391,-5.1484,-5.1605,-5.1778,-5.1733,-5.1804,-5.1808,-5.1906,-5.2101,-5.1845,-5.1847,-5.189,-5.2344,-5.2381,-5.2419,-5.2082,-5.2088,-5.2093,-5.2336,0,-5.0845,-5.1101,-5.1114,-5.1346,-5.1468,-5.1436,-5.1562,-5.1641,-5.1676,-5.1784,-5.1821,-5.1944,-5.1875,-5.1918,-5.2014,-5.2057,-5.2193,-5.204,-5.2194,-5.2199,-5.2171,-5.2461,-5.2501,-5.2727,-5.2368,-5.2373,-5.2377,0,-5.1156,-5.1258,-5.1503,-5.1593,-5.1644,-5.1758,-5.1873,-5.1976,-5.2065,-5.2083,-5.2162,-5.2152,-5.2299,-5.2197,-5.24,-5.2295,-5.2359,-5.239,-5.2399,-5.2414,-5.23,-5.2484,-5.2799,-5.2833,-5.2427,-5.2423,-5.2419,0,-5.1341,-5.1539,-5.1711,-5.1762,-5.1871,-5.1952,-5.2001,-5.2084,-5.2158,-5.2258,-5.2306,-5.2422,-5.2485,-5.2574,-5.2595,-5.2519,-5.2797,-5.2697,-5.2815,-5.2815,-5.2876,-5.2872,-5.3205,-5.2917,-5.2916,-5.2915,-5.2915,0,-5.1604,-5.1755,-5.1795,-5.1901,-5.2068,-5.2081,-5.2246,-5.229,-5.2364,-5.2476,-5.2455,-5.2561,-5.2582,-5.2692,-5.2709,-5.2873,-5.2902,-5.292,-5.2923,-5.2922,-5.292,-5.2964,-5.2949,-5.2924,-5.2922,-5.2921,-5.2919,0,-5.1839,-5.1873,-5.2058,-5.2146,-5.2172,-5.2291,-5.2366,-5.2467,-5.2499,-5.2642,-5.2676,-5.2725,-5.2854,-5.2883,-5.3035,-5.3046,-5.3241,-5.3228,-5.3212,-5.3211,-5.3327,-5.3316,-5.3701,-5.3752,-5.343,-5.3433,-5.3435,0,-5.2005,-5.212,-5.2221,-5.2295,-5.2349,-5.2468,-5.2544,-5.256,-5.264,-5.2749,-5.2837,-5.2962,-5.3064,-5.3271,-5.332,-5.3436,-5.3426,-5.3552,-5.3443,-5.3439,-5.3427,-5.3421,-5.3432,-5.3574,-5.3577,-5.358,-5.3582,0,-5.2296,-5.2307,-5.2417,-5.2533,-5.2623,-5.2715,-5.2803,-5.2864,-5.2893,-5.2983,-5.3114,-5.3193,-5.3348,-5.3474,-5.359,-5.3639,-5.3616,-5.3616,-5.3649,-5.365,-5.3636,-5.3645,-5.3269,-5.3607,-5.3605,-5.3603,-5.3602,-5.3601,-5.2502,-5.2603,-5.2689,-5.2812,-5.2879,-5.2962,-5.306,-5.3104,-5.3214,-5.3343,-5.3345,-5.3488,-5.3573,-5.3727,-5.3783,-5.3894,-5.3855,-5.3904,-5.3916,-5.3928,-5.3938,-5.3618,-5.3916,-5.3915,-5.3914,-5.3914,-5.3913,0,-5.2792,-5.2846,-5.2959,-5.3082,-5.3178,-5.3148,-5.3243,-5.3325,-5.3451,-5.3533,-5.3633,-5.3784,-5.3904,-5.3963,-5.4082,-5.416,-5.4152,-5.4191,-5.4185,-5.4197,-5.3967,-5.3926,-5.4195,-5.4195,-5.4195,-5.4195,-5.4195,-5.4195,-5.2954,-5.3123,-5.3143,-5.3344,-5.3397,-5.3537,-5.3594,-5.3669,-5.3734,-5.3903,-5.4004,-5.4041,-5.4113,-5.4237,-5.4346,-5.436,-5.4405,-5.4449,-5.4457,-5.4242,-5.4213,-5.4186,-5.4147,-5.4458,-5.4459,-5.4678,-5.468,-5.4682]}]]